Regional Weather Roundup
Issued by NWS Midland/Odessa, TX

Home | Current Version | Previous Version | Text Only | Print | Product List | Glossary On
Versions: 1 2 3 4 5 6 7 8 9 10 11 12 13 14 15 16 17 18 19 20 21 22 23 24 25 26 27 28 29 30 31 32 33 34 35 36 37 38 39 40 41 42 43 44 45 46 47 48 49 50
000
ASUS44 KMAF 251410
RWRMAF
MIDLAND AREA WEATHER ROUNDUP
NATIONAL WEATHER SERVICE MIDLAND TX
900 AM CDT FRI JUL 25 2014

...IN SOUTHWEST TEXAS AND SOUTHEAST NEW MEXICO...

CITY           SKY/WX    TMP DP  RH WIND       PRES   REMARKS
ALPINE         SUNNY     74  57  54 SW5       30.25S
ANDREWS        FAIR      78  62  58 S8        30.13R
ARTESIA        SUNNY     77  54  44 S8        30.12S
BIG SPRING     SUNNY     79  63  58 S9        30.12S
CARLSBAD       SUNNY     80  53  39 SE6       30.10R
DRYDEN           N/A     82  66  58 E8        30.07R
FORT STOCKTON  SUNNY     78  62  57 S10       30.11R
GUAD PASS      SUNNY     75  54  47 SW8       30.27S
HOBBS          SUNNY     75  59  57 S12       30.15R
MARFA          SUNNY     70  57  64 CALM      30.25R
MIDLAND AIRPK  MOSUNNY   79  63  57 S8        30.12S
MIDLAND INTL   MOSUNNY   79  64  60 S10       30.11R
ODESSA         MOSUNNY   78  63  59 S12       30.12R
PECOS          MOSUNNY   76  60  57 E6        30.07S
PRESIDIO       FAIR      82  56  41 NE8       30.09S
SEMINOLE       MOSUNNY   78  61  57 S9        30.14R
SNYDER         SUNNY     77  63  61 SW9       30.09S
WINK           MOSUNNY   76  63  64 SE9       30.08S
$$
...OTHER STATIONS IN TEXAS...

CITY           SKY/WX    TMP DP  RH WIND       PRES   REMARKS
ABILENE        SUNNY     80  66  62 SW9       30.07R
AMARILLO       SUNNY     78  61  55 SW18G25   30.08S
AUSTIN         MOSUNNY   81  73  76 SW7       30.05R
BROWNSVILLE    MOSUNNY   84  79  84 S12       30.01R
CORPUS CHRISTI MOSUNNY   84  76  76 S9        30.02R
DALLAS FTW     MOSUNNY   82  70  66 S8        30.01S
DEL RIO        SUNNY     81  71  71 SE8       30.02R
EL PASO        MOSUNNY   79  53  40 S5        30.14R
HOUSTON INT    MOSUNNY   82  76  81 W8        30.05R
LUBBOCK        MOSUNNY   80  61  52 SW15      30.11R
SAN ANGELO     SUNNY     79  67  66 S7        30.08R
SAN ANTONIO    CLOUDY    79  74  84 SW6       30.06R
WACO           SUNNY     82  71  69 SW7       30.04R
WICHITA FALLS  NOT AVBL
$$
...OTHER LOCATIONS IN NEW MEXICO...

CITY           SKY/WX    TMP DP  RH WIND       PRES   REMARKS
ALAMAGORDO     SUNNY     77  46  33 E3        30.17S
ALBUQUERQUE    MOSUNNY   75  42  30 S8        30.23R
CANNON AFB     SUNNY     74  60  60 SW8       30.16S
CLOVIS         NOT AVBL
HOLLOMAN AFB   SUNNY     77  48  35 SE5       30.15R
ROSWELL        SUNNY     78  54  43 S10       30.12R
RUIDOSO        SUNNY     68  48  49 CALM      30.37S
SANTA FE       SUNNY     69  46  43 N3        30.29R
TRUTH OR CONSE SUNNY     73  48  41 W6        30.20R
TUCUMCARI      SUNNY     81  55  40 SW20      30.08S
$$


USA.gov is the U.S. government's official web portal to all federal, state and local government web resources and services.